Regional Weather Roundup
Issued by NWS Green Bay, WI

Home | Current Version | Previous Version | Graphics & Text | Print | Product List | Glossary Off
Versions: 1 2 3 4 5 6 7 8 9 10 11 12 13 14 15 16 17 18 19 20 21 22 23 24 25 26 27 28 29 30 31 32 33 34 35 36 37 38 39 40 41 42 43 44 45 46 47 48 49 50

000
ASUS43 KGRB 252210
RWRGRB

NORTH-CENTRAL AND NORTHEAST WISCONSIN REGIONAL WEATHER ROUNDUP
NATIONAL WEATHER SERVICE GREEN BAY WI
500 PM CDT FRI JUL 25 2014

WIZ005-009-010>012-018-019-252300-
NORTH CENTRAL WISCONSIN

CITY           SKY/WX    TMP DP  RH WIND       PRES   REMARKS
IRONWOOD       NOT AVBL
MANITOWISH WTR CLOUDY    70  64  82 SW8       29.85R
ARBOR VITAE    CLOUDY    72  65  79 S10       29.86R
EAGLE RIVER      N/A     68  59  74 SW7       29.85F
LAND O LAKES   CLOUDY    69  61  75 SW6       29.87R
RHINELANDER    CLOUDY    66  61  84 SW10      29.88S
PHILLIPS       CLOUDY    67  63  87 SW9       29.86S
ANTIGO         CLOUDY    65  61  85 SW8       29.89F
TOMAHAWK       CLOUDY    65  61  86 S3        29.89R
MERRILL        CLOUDY    67  63  87 SW6       29.88S
$$

WIZ013-073-252300-
NORTHEAST WISCONSIN

CITY           SKY/WX    TMP DP  RH WIND       PRES   REMARKS
IRON MOUNTAIN  CLOUDY    70  60  70 SW9       29.85S
MARINETTE      CLOUDY    70  57  64 SW14      29.87R
OCONTO         CLOUDY    72  59  64 S5        29.87S
$$

WIZ017-030-035>037-045-252300-
CENTRAL WISCONSIN

CITY           SKY/WX    TMP DP  RH WIND       PRES   REMARKS
MEDFORD        CLOUDY    67  62  85 S8        29.88F
WAUSAU         CLOUDY    67  61  81 SW8       29.87F
MOSINEE        CLOUDY    66  63  88 SW7       29.90F
MARSHFIELD     CLOUDY    68  62  81 S8        29.88F
WISC RAPIDS    CLOUDY    70  61  73 SW9       29.90F
STEVENS POINT  CLOUDY    66  59  78 SW7       29.89F
WAUPACA        CLOUDY    72  60  65 SW10      29.90S
SHAWANO        CLOUDY    71  60  69 CALM      29.89S
CLINTONVILLE   CLOUDY    70  59  68 SW8       29.89S
$$

WIZ038-039-048-051-252300-
FOX VALLEY

CITY           SKY/WX    TMP DP  RH WIND       PRES   REMARKS
NWS GREEN BAY  CLOUDY    72  60  66 S14G22    29.89S
APPLETON       CLOUDY    72  57  60 SW13      29.90F
OSHKOSH        MOSUNNY   72  60  66 SW13G20   29.89F
FOND DU LAC    PTSUNNY   72  59  63 SW14      29.91F
$$

WIZ022-050-052-252300-
EAST CENTRAL WISCONSIN

CITY           SKY/WX    TMP DP  RH WIND       PRES   REMARKS
STURGEON BAY   CLOUDY    68  57  68 S7        29.90S
MANITOWOC      CLOUDY    72  59  63 S13       29.90F
SHEBOYGAN      MOSUNNY   73  60  63 SW12      29.91F
$$

LMZ563-521-522-541>543-252300-
LAKESHORE

STATION/POSITION TIME  TEMP    WIND        PRES    VSBY  WAVE
                       AIR SEA DIR/SP/G                  HT/PER
                 (UTC) (F)     (DEG/KT/KT) (MB)    (MI)  (FT/S)
SHEBOYGAN LKSHOR 2200   63     160/ 17/ 18 1012.7F
KEWAUNEE LKSHORE 2200   55     180/ 11/ 13 1013.0F
TWO RIVERS CG    2100   58                   N/A       6   2
NORTHPORT PIER   2200   68     170/  6/ 12 1011.9S
N MID LAKE BUOY  2200   59 55  190/ 14/ 16 1011.8S         3/ 5
STURGEON BAY CG  2100   55 48  180/  9     1012.4      6   2
CHAMBERS ISLAND  2200   69     200/  7/ 16 1011.9R
MENOMINEE LKSHOR 2200   70     210/  7/ 12 1012.6R
$$



USA.gov is the U.S. government's official web portal to all federal, state and local government web resources and services.